METEOR 2-6 DEB, 38836

Orbit data source: Space-Track

METEOR 2-6 DEB, 38836 is space debris in LEO originally from a launch on Tue, 09 Sep 1980 UTC launched from the Plesetsk Missile And Space Complex (PKMTR). Debris objects in space refer to the collection of defunct objects orbiting the Earth. Examples of debris include non-operational satellites, rocket bodies, and fragments generated from explosions, collisions, or faulty payload assembly.

Loading next visibility...
METEOR 2-6 DEB details
Identifier
38836, 1980-073N
Orbit
LEO
Last TLE update3 months ago
Origin
Flag of CISKVR (CIS)
ManufacturerUnknown
MissionSpacecraft
Bus & MotorUnknown
MassUnknown
Launch date (UTC)
1980-09-09 (44 years ago)
Launch vehicleUnknown
Launch site
Plesetsk Missile And Space Complex (PKMTR)
Object type
Payload
Rocket body
Debris
Shape & HBRUnknown
Radar Cross SectionSmall (<0.1 m²)

Expand to show TLE details & history

TLE from 3 months ago
0 METEOR 2-6 DEB
1 38836U 80073N   24272.24396014  .00049468  00000-0  11416-1 0  9997
2 38836  81.2021 243.4553 0020699 182.8315 239.4494 14.54844368622859
Epoch: 2024-09-28T05:51Z
Definitive object data (Epoch: 2024-09-28T05:51:18.156Z)
Latitude60.92737°
Longitude164.20078°
Altitude727.724 km
Speed7.493 km/s
True Right ascension17h 18m 07s
True Declination60° 46' 50"
Sunlit
Object was in daylight at TLE epoch
Visualization TLE readout
Latitude-12.83161°
Longitude-124.42702°
Altitude681.829 km
Speed7.516 km/s
Apparent Right ascension22h 51m 53s
Apparent Declination-26° 15' 05"
Sunlit
Object is in full shadow
Visualization observer readout
Local Sidereal Time12:00:14
Azimuth51.342° ENE
Elevation-70.275°
Doppler factor1
Orbital elements
Apogee altitude721.652 km
Perigee altitude692.321 km
Semi-major axis7,085.124 km
Eccentricity0.0020699
Inclination81.2021°
RAAN243.4553°
Arg. of periapsis182.8315°
True anomaly239.2454°
Mean anomaly239.4494°
Eccentric anomaly239.34737°
Mean motion3.63933 °/min
BSTAR0.011416
Orbital period98.92 mins
Loading maneuver chart data...
Loading historical data...
Loading historical data...
Loading historical data...
Loading historical data...
Loading historical data...
Loading historical data...
Loading historical data...

METEOR 2-6 DEB Visibility forecast

Observer location: undefined°, undefined

Span
Click to sort rows by Start time (UTC) header in descending order
Start Az.
Max El. time (UTC)
Max El. Az.
Max El.
End time (UTC)
End Az.
7 mins2024-12-26 22:11:41.826Z339.195° N2024-12-26 22:14:41.826Z246.134° WSW42.02°2024-12-26 22:18:41.826Z183.442° SSW
8 mins2024-12-27 10:50:41.826Z186.1° SSW2024-12-27 10:54:41.826Z19.594° NNE43.546°2024-12-27 10:58:41.826Z10.223° NNE
|